www.pogodaiklimat.ru
ПОГОДА на Острове Хармая
Время
(UTC), дата
07 8.10
08 8.10
09 8.10
10 8.10
11 8.10
12 8.10
13 8.10
14 8.10
15 8.10
16 8.10
17 8.10
18 8.10
19 8.10
20 8.10
21 8.10
22 8.10
23 8.10
00 9.10
01 9.10
02 9.10
03 9.10
04 9.10
05 9.10
06 9.10
07 9.10
08 9.10
09 9.10
10 9.10
11 9.10
12 9.10
13 9.10
14 9.10
15 9.10
16 9.10
17 9.10
18 9.10
19 9.10
20 9.10
21 9.10
22 9.10
23 9.10
00 10.10
01 10.10
02 10.10
03 10.10
04 10.10
05 10.10
06 10.10
07 10.10
08 10.10
09 10.10
10 10.10
11 10.10
12 10.10
13 10.10
14 10.10
15 10.10
16 10.10
17 10.10
18 10.10
19 10.10
20 10.10
21 10.10
22 10.10
23 10.10
00 11.10
01 11.10
02 11.10
03 11.10
04 11.10
05 11.10
06 11.10
07 11.10
08 11.10
09 11.10
10 11.10
11 11.10
12 11.10
13 11.10
14 11.10
15 11.10
16 11.10
17 11.10
18 11.10
19 11.10
20 11.10
21 11.10
22 11.10
23 11.10
00 12.10
01 12.10
02 12.10
03 12.10
04 12.10
05 12.10
06 12.10
07 12.10
08 12.10
09 12.10
10 12.10
11 12.10
12 12.10
13 12.10
14 12.10
15 12.10
16 12.10
17 12.10
18 12.10
19 12.10
20 12.10
21 12.10
22 12.10
23 12.10
00 13.10
01 13.10
02 13.10
03 13.10
04 13.10
05 13.10
06 13.10
07 13.10
08 13.10
09 13.10
10 13.10
11 13.10
12 13.10
13 13.10
14 13.10
15 13.10
16 13.10
17 13.10
18 13.10
19 13.10
20 13.10
21 13.10
22 13.10
23 13.10
00 14.10
01 14.10
02 14.10
03 14.10
04 14.10
05 14.10
06 14.10
07 14.10
08 14.10
09 14.10
10 14.10
11 14.10
12 14.10
13 14.10
14 14.10
15 14.10
16 14.10
17 14.10
18 14.10
19 14.10
20 14.10
21 14.10
22 14.10
23 14.10
00 15.10
01 15.10
02 15.10
03 15.10
04 15.10
05 15.10
06 15.10
Ветер
(напр.,м/с)
Видим. Явления Облачность Т
(С)
Тd
(С)
f
(%)
Тe
(С)
Тes
(С)
Комфортность P
(гПа)
Po
(гПа)
Тmin
(С)
Tmax
(С)
R
(мм)
R24
(мм)
S
(см)
СВ 3-4
{4}
50 км 9/1 1500 м
[]
+5.4 +3.8 89 +2 +2 по сезону 1006.4 1005.1
З 1-3
{4}
6000 м дождь 10/0 300 м
[]
+5.3 +3.2 86 +4 +5 по сезону 1005.9 1004.6
Ю 2-2
{2}
50 км в посл. час снег {ливн. осадки, дождь} 10/10 300 м
[]
+6.0 +3.0 81 +4 +4 по сезону 1005.4 1004.2
Ю 1-1
{3}
45 км 9/9 300 м
[]
+6.9 +3.3 78 +6 +6 тепло 1004.8 1003.5
Ю 1-2
{2}
50 км 9/4 600 м
[]
+6.9 +2.2 72 +6 +7 тепло 1004.6 1003.3
ЮЗ 4-7
{7}
50 км {ливн. осадки, дождь} 9/9 600 м
[]
+6.7 +2.7 76 +3 +3 по сезону 1004.1 1002.8
ЮЗ 3-4
{6}
50 км 10/0 1000 м
[]
+6.8 +2.2 72 +4 +5 по сезону 1003.5 1002.2
ЮЗ 2-3
{5}
50 км 9/6 1500 м
[]
+6.7 +2.0 72 +5 +5 тепло 1003.1 1001.8
ЮЗ 1-2
{3}
50 км 10/0
[]
+6.5 +2.4 75 +6 +6 тепло 1002.9 1001.6
СВ 1-1
{2}
50 км 9/1 300 м
[]
+6.6 +2.7 76 +6 +6 тепло 1002.6 1001.4
В 2-3
{3}
50 км 9/5 1000 м
[]
+6.7 +2.7 76 +5 +5 тепло 1002.3 1001.0
СВ 3-4
{4}
50 км 9/9 1000 м
[]
+6.9 +3.7 80 +4 +4 по сезону 1002.0 1000.8 +5.1 +7.5
СВ 4-5
{5}
50 км 10/6 600 м
[]
+6.7 +4.4 85 +3 +3 по сезону 1001.8 1000.5
Ю 2-3
{6}
50 км 10/10 300 м
[]
+6.8 +3.7 81 +5 +5 тепло 1001.4 1000.2
Ю 5-6
{7}
50 км 10/0 300 м
[]
+6.6 +3.8 82 +2 +2 по сезону 1001.3 1000.0
Ю 3-4
{6}
50 км 9/9 300 м
[]
+6.5 +3.3 80 +3 +3 по сезону 1001.2 1000.0
Ю 2-2
{5}
50 км 9/0 300 м
[]
+6.4 +3.2 80 +4 +4 по сезону 1001.0 999.7
В 1-2
{3}
50 км 8/0 300 м
[]
+6.6 +2.8 77 +6 +6 тепло 1000.8 999.5
СВ 4-4
{5}
50 км 1/0
[]
+5.8 +4.3 90 +2 +2 по сезону 1000.5 999.3
СВ 4-5
{5}
50 км 5/0
[]
+5.2 +4.0 92 +1 +1 по сезону 1000.3 999.0
СВ 4-5
{5}
50 км 9/0
[]
+4.7 +3.6 93 0 0 по сезону 1000.3 999.0
СВ 4-6
{6}
45 км 9/0
[]
+4.6 +3.5 93 0 0 по сезону 1000.4 999.1
СВ 4-6
{6}
50 км 9/9
[]
+4.9 +3.5 91 +1 +1 по сезону 1000.6 999.3
СВ 4-6
{6}
50 км 5/5 1000 м
[]
+5.0 +3.3 89 +1 +1 по сезону 1000.8 999.5 +4.5 +7.0
СВ 4-5
{6}
50 км 9/6 600 м
[]
+5.4 +3.3 86 +1 +1 по сезону 1000.8 999.5
н/о
н/о
н/о
В 4-5
{6}
20 км 10/1 1000 м
[]
+6.9 +3.6 79 +3 +4 по сезону 1001.8 1000.6
В 4-5
{5}
20 км 8/0 2000 м
[]
+7.3 +3.9 79 +4 +5 по сезону 1002.1 1000.9
В 3-4
{6}
19 км 10/3 1500 м
[]
+7.4 +4.5 82 +5 +5 тепло 1002.1 1000.9
В 3-4
{4}
21 км в посл. час морось 10/10 300 м
[]
+7.7 +5.1 84 +5 +5 тепло 1002.4 1001.2
СВ 3-4
{4}
28 км ливневой дождь 10/10 600 м
[]
+7.7 +5.2 84 +5 +5 тепло 1002.6 1001.4
В 2-2
{4}
27 км слаб. ливневой дождь 10/10 600 м
[]
+7.6 +5.4 86 +6 +6 тепло 1003.0 1001.7
В 1-1
{3}
20 км слаб. дождь 10/10 300 м
[]
+7.6 +5.2 85 +7 +7 тепло 1003.0 1001.8
СВ 2-3
{3}
50 км в посл. час дождь со снегом {ливн. осадки} 10/10 1000 м
[]
+7.6 +6.2 91 +5 +5 тепло 1003.0 1001.7 +4.9 +7.9
СВ 3-4
{4}
40 км 10/0 600 м
[]
+7.5 +6.3 92 +5 +5 тепло 1003.1 1001.9
СВ 4-5
{5}
27 км морось 10/0 300 м
[]
+7.1 +6.1 93 +3 +3 по сезону 1003.1 1001.8
СВ 4-5
{5}
35 км {ливн. осадки, морось} 10/0 300 м
[]
+6.3 +5.4 94 +2 +2 по сезону 1003.0 1001.7
СВ 5-6
{6}
35 км 10/0 300 м
[]
+6.5 +5.6 94 +2 +2 по сезону 1002.7 1001.5
В 6-7
{7}
45 км 9/0 300 м
[]
+7.7 +6.5 92 +3 +3 по сезону 1002.5 1001.2
В 4-5
{6}
40 км {ливн. осадки, морось} 9/9 300 м
[]
+8.4 +7.3 93 +5 +5 тепло 1002.3 1001.0
СВ 3-5
{5}
30 км 10/10 100 м
[]
+7.4 +6.6 95 +4 +4 по сезону 1002.0 1000.8
СВ 3-4
{5}
26 км 9/1 1000 м
[]
+7.2 +6.6 96 +4 +4 по сезону 1001.8 1000.6
В 4-4
{4}
16 км 10/0 300 м
[]
+6.5 +6.1 97 +3 +3 по сезону 1001.7 1000.5
В 4-5
{5}
22 км 9/9 600 м
[]
+7.7 +7.1 96 +4 +4 по сезону 1001.4 1000.1
СВ 3-4
{5}
21 км 10/5 300 м
[]
+8.2 +7.6 96 +5 +5 тепло 1001.0 999.8
ЮВ 4-5
{5}
40 км 9/9 600 м
[]
+8.9 +6.7 86 +6 +6 тепло 1001.0 999.8 +6.1 +9.0
ЮВ 4-5
{6}
45 км 9/9 300 м
[]
+8.9 +6.9 87 +6 +6 тепло 1000.9 999.6
ЮВ 5-6
{6}
40 км 10/0 200 м
[]
+8.9 +7.2 89 +5 +6 тепло 1000.7 999.5
ЮВ 3-4
{6}
50 км 10/0 300 м
[]
+9.0 +7.2 88 +6 +7 тепло 1000.9 999.7
ЮВ 4-5
{5}
50 км 10/0 300 м
[]
+9.2 +7.3 88 +6 +7 тепло 1000.9 999.7
ЮВ 3-4
{5}
40 км 10/10 300 м
[]
+9.6 +7.3 86 +7 +7 тепло 1000.8 999.5
ЮВ 2-3
{4}
45 км 10/0 200 м
[]
+9.5 +7.8 89 +8 +9 тепло 1000.7 999.4
В 1-2
{2}
50 км 10/0 200 м
[]
+9.5 +8.0 90 +9 +10 тепло 1000.7 999.5
штиль 0-1
{2}
45 км 10/0 300 м
[]
+9.5 +7.9 90 +9 +9 тепло 1000.8 999.6
В 2-2
{2}
45 км 10/10 300 м
[]
+9.5 +7.8 89 +8 +8 тепло 1000.8 999.5
С 1-1
{2}
50 км 10/0 300 м
[]
+9.2 +7.7 90 +9 +9 тепло 1001.2 999.9
В 1-1
{1}
45 км 6/0 1500 м
[]
+8.8 +7.6 92 +8 +8 тепло 1001.2 999.9
В 2-2
{2}
50 км 9/0 1500 м
[]
+9.2 +7.9 92 +7 +7 тепло 1001.3 1000.0 +8.7 +9.6
Ю 3-4
{4}
50 км 9/8 1500 м
[]
+9.4 +8.2 92 +7 +7 тепло 1001.2 999.9
Ю 4-5
{5}
50 км 9/6 200 м
[]
+9.9 +8.5 91 +7 +7 тепло 1001.3 1000.0
Ю 4-5
{5}
50 км 10/10 300 м
[]
+10.3 +8.6 89 +8 +8 тепло 1001.0 999.8
Ю 5-6
{6}
50 км 9/6
[]
+10.5 +8.8 89 +7 +7 тепло 1001.0 999.8
Ю 6-6
{7}
35 км 9/9 300 м
[]
+10.7 +9.6 93 +7 +7 тепло 1000.8 999.5
ЮЗ 6-6
{8}
40 км 10/10 300 м
[]
+10.7 +9.1 90 +7 +7 тепло 1000.7 999.4
ЮЗ 8-10
{10}
50 км 9/9 300 м
[]
+10.6 +9.0 90 +7 +7 тепло 1000.6 999.4
ЮЗ 8-10
{10}
8000 м ливневой дождь 9/9 200 м
[]
+10.2 +9.3 94 +6 +6 тепло 1000.6 999.3
ЮЗ 9-10
{10}
16 км ливневой дождь 10/10 100 м
[]
+10.4 +9.4 94 +6 +6 тепло 1000.3 999.1
ЮЗ 5-6
{10}
3800 м сильн. дождь 10/0 600 м
[]
+8.9 +7.4 90 +5 +5 тепло 1000.4 999.1
ЮЗ 9-10
{10}
12 км слаб. ливневой дождь 9/9 1000 м
[]
+10.2 +9.1 93 +6 +6 тепло 1000.0 998.8
ЮЗ 9-12
{12}
18 км морось {ливн. осадки, дождь} 10/10 200 м
[]
+10.3 +9.1 92 +6 +6 тепло 1000.1 998.8 +8.7 +10.8
Ю 9-11
{12}
50 км слаб. дождь 9/9 1500 м
[]
+10.1 +8.0 87 +6 +6 тепло 999.8 998.5
ЮЗ 7-9
{10}
30 км 10/0 1000 м
[]
+10.7 +8.9 89 +7 +7 тепло 1000.2 998.9
ЮЗ 6-8
{9}
40 км {дождь, морось} 10/0 1500 м
[]
+10.7 +9.0 89 +7 +8 тепло 1000.4 999.2
ЮЗ 6-7
{8}
40 км 8/8 300 м
[]
+10.8 +9.5 92 +8 +8 тепло 1000.5 999.3
ЮЗ 9-10
{13}
23 км слаб. ливневой дождь 9/0 1000 м
[]
+10.6 +8.9 89 +6 +7 тепло 1000.3 999.0
ЮЗ 8-10
{10}
29 км {ливн. осадки, дождь} 8/8 300 м
[]
+11.3 +8.9 85 +8 +8 тепло 1000.1 998.8
ЮЗ 10-12
{14}
9000 м слаб. ливневой дождь 9/9 300 м
[]
+10.4 +9.1 92 +6 +6 тепло 999.9 998.6
ЮЗ 11-13
{16}
14 км ливневой дождь 9/0 1000 м
[]
+10.4 +9.2 92 +6 +6 тепло 999.5 998.3
ЮЗ 9-10
{12}
35 км в посл. час дождь со снегом {ливн. осадки, морось} 9/9 300 м
[]
+10.5 +8.5 87 +6 +6 тепло 999.1 997.9
ЮЗ 10-12
{12}
35 км 9/4 300 м
[]
+11.0 +8.9 87 +7 +7 тепло 998.8 997.6
ЮЗ 8-10
{13}
35 км 9/4 1000 м
[]
+11.1 +8.8 86 +7 +7 тепло 998.4 997.1
Ю 10-12
{13}
14 км слаб. дождь 10/10 300 м
[]
+10.9 +9.6 92 +7 +7 тепло 997.9 996.7 +9.5 +11.5
Ю 10-12
{13}
11 км слаб. дождь 10/10 200 м
[]
+10.6 +9.7 94 +6 +6 тепло 997.2 996.0
Ю 9-10
{12}
22 км в посл. час дождь 10/10 200 м
[]
+10.5 +9.4 93 +6 +6 тепло 996.5 995.3
Ю 9-11
{11}
4300 м ливневой дождь 10/0 100 м
[]
+10.1 +9.7 97 +6 +6 тепло 995.7 994.4
Ю 9-10
{11}
6000 м слаб. ливневой дождь 9/0 200 м
[]
+10.6 +9.9 95 +6 +6 тепло 994.5 993.3
Ю 9-11
{12}
45 км в посл. час дождь 9/9 300 м
[]
+11.2 +10.2 94 +7 +7 тепло 993.9 992.7
Ю 7-12
{12}
2500 м дождь {ливн. осадки} 10/10 100 м
[]
+10.9 +10.7 99 +7 +7 тепло 992.7 991.5
Ю 9-11
{14}
2800 м дождь 10/0 200 м
[]
+10.9 +10.5 97 +7 +7 тепло 991.0 989.8
ЮЗ 2-4
{15}
5000 м дождь 10/0 100 м
[]
+9.5 +9.0 97 +8 +8 тепло 990.2 988.9
З 3-5
{11}
1800 м дождь 10/0 100 м
[]
+9.2 +8.8 97 +7 +7 тепло 988.7 987.4
С 1-2
{4}
13 км ливневой дождь 9/8 300 м
[]
+9.3 +8.9 97 +9 +9 тепло 987.8 986.5
З 4-5
{5}
30 км в посл. час дождь 9/4 1000 м
[]
+9.5 +9.2 98 +6 +6 тепло 987.4 986.2
З 5-7
{9}
30 км ливневой дождь 8/8 1000 м
[]
+9.3 +8.9 97 +6 +6 тепло 987.2 986.0 +9.0 +11.3
З 8-9
{11}
30 км слаб. ливневой дождь 9/0 600 м
[]
+9.8 +8.8 93 +6 +6 тепло 987.9 986.6
З 9-11
{12}
30 км в посл. час морось 1/0 200 м
[]
+10.3 +8.9 91 +6 +6 тепло 987.9 986.7
З 9-11
{13}
45 км в посл. час дождь со снегом {ливн. осадки, туман} 9/0 1500 м
[]
+10.2 +8.0 86 +6 +6 тепло 988.6 987.3
З 8-10
{11}
30 км 1/1 600 м
[]
+10.5 +8.5 87 +7 +7 тепло 989.3 988.0
З 11-14
{14}
45 км в посл. час морось 9/0 600 м
[]
+10.8 +8.1 83 +6 +6 тепло 990.0 988.8
З 11-14
{14}
50 км {ливн. осадки, дождь} 9/0 600 м
[]
+10.5 +8.2 86 +6 +6 тепло 991.2 990.0
З 10-12
{14}
50 км 9/0 600 м
[]
+10.7 +7.9 83 +6 +6 тепло 992.3 991.1
З 10-12
{14}
50 км 10/0 600 м
[]
+10.5 +7.6 82 +6 +6 тепло 993.5 992.2
З 9-10
{14}
50 км 9/0 600 м
[]
+10.4 +7.4 82 +6 +6 тепло 994.7 993.4
З 9-10
{11}
50 км 1/0 1000 м
[]
+9.9 +7.5 85 +6 +6 тепло 995.8 994.6
З 8-10
{10}
50 км 10/0 1000 м
[]
+9.7 +7.0 83 +6 +6 тепло 996.6 995.3
З 7-9
{9}
50 км 10/0 1000 м
[]
+9.8 +6.8 82 +6 +6 тепло 997.2 995.9 +9.1 +11.1
З 7-8
{8}
50 км 10/0 1000 м
[]
+9.6 +6.8 83 +6 +6 тепло 997.7 996.4
ЮЗ 7-9
{9}
50 км 10/0 1000 м
[]
+10.0 +7.5 84 +6 +6 тепло 997.9 996.6
ЮЗ 5-5
{8}
50 км 10/0 600 м
[]
+10.1 +7.2 82 +7 +7 тепло 998.1 996.8
ЮЗ 4-5
{6}
45 км 10/10 300 м
[]
+10.3 +8.1 86 +8 +8 тепло 998.1 996.9
ЮЗ 5-6
{8}
30 км слаб. дождь 9/9 1000 м
[]
+10.2 +8.9 92 +7 +7 тепло 997.9 996.7
ЮЗ 6-7
{8}
23 км ливневой дождь 10/0 1500 м
[]
+10.0 +8.8 92 +6 +6 тепло 997.9 996.6
ЮЗ 5-6
{8}
35 км 9/0 300 м
[]
+10.1 +8.4 89 +7 +7 тепло 998.0 996.7
ЮЗ 6-8
{8}
29 км 9/9 300 м
[]
+10.5 +9.1 91 +7 +7 тепло 998.2 997.0
З 6-8
{8}
26 км {ливн. осадки, дождь} 9/0 1500 м
[]
+10.3 +9.0 92 +7 +7 тепло 998.5 997.2
З 6-7
{8}
23 км 8/0 1500 м
[]
+10.0 +8.9 93 +6 +6 тепло 998.7 997.5
З 7-8
{8}
30 км 10/10 300 м
[]
+10.3 +9.1 92 +7 +7 тепло 999.2 998.0
З 7-8
{8}
30 км {ливн. осадки, дождь} 10/0 1500 м
[]
+10.3 +9.1 92 +7 +7 тепло 999.8 998.5 +9.6 +10.6
З 7-8
{9}
26 км слаб. ливневой дождь 10/0 1500 м
[]
+10.4 +9.3 93 +7 +7 тепло 1000.5 999.3
З 8-10
{10}
30 км 9/9 300 м
[]
+10.6 +9.1 90 +7 +7 тепло 1001.3 1000.0
З 8-9
{10}
45 км {ливн. осадки, дождь} 5/0 300 м
[]
+10.8 +8.6 86 +7 +7 тепло 1002.2 1000.9
З 8-10
{11}
40 км 10/0 1500 м
[]
+11.2 +8.4 83 +8 +8 тепло 1003.1 1001.9
З 10-11
{11}
50 км 9/0 600 м
[]
+11.3 +7.5 77 +7 +7 тепло 1004.0 1002.8
З 11-13
{13}
45 км {ливн. осадки, дождь} ясно +11.2 +5.7 69 +7 +7 тепло 1005.1 1003.8
З 10-13
{14}
45 км 1/0 1000 м
[]
+10.9 +5.0 67 +7 +7 тепло 1006.3 1005.0
З 10-12
{13}
45 км 9/0 600 м
[]
+10.2 +5.5 73 +6 +6 тепло 1007.5 1006.2
З 8-9
{11}
50 км ясно +9.9 +5.3 73 +6 +6 тепло 1008.3 1007.0
З 8-9
{9}
50 км ясно +9.6 +5.7 77 +6 +6 тепло 1009.5 1008.3
СЗ 9-10
{12}
50 км 3/0 600 м
[]
+8.9 +5.6 80 +4 +4 по сезону 1010.5 1009.3
З 6-7
{10}
50 км 4/0 1000 м
[]
+8.2 +4.4 77 +4 +4 по сезону 1011.5 1010.2 +8.1 +11.8
СЗ 5-6
{7}
50 км ясно +7.9 +4.4 79 +4 +4 по сезону 1012.1 1010.9
СЗ 5-6
{7}
50 км ясно +7.6 +4.5 81 +4 +4 по сезону 1012.6 1011.3
СЗ 2-3
{5}
50 км 1/0 600 м
[]
+7.2 +4.6 84 +5 +5 тепло 1013.0 1011.7
ЮЗ 1-1
{3}
50 км ясно +6.8 +4.2 83 +6 +6 тепло 1013.3 1012.0
штиль 0-1
{1}
50 км 3/1 600 м
[]
+6.9 +4.1 82 +6 +6 тепло 1013.3 1012.0
ЮВ 2-3
{3}
50 км 8/0 600 м
[]
+7.6 +4.1 78 +6 +6 тепло 1012.6 1011.3
ЮВ 4-5
{5}
50 км 9/8 300 м
[]
+8.0 +4.8 80 +5 +5 тепло 1011.8 1010.5
ЮВ 6-7
{7}
50 км 9/9 300 м
[]
+8.5 +5.5 81 +5 +5 тепло 1011.6 1010.3
ЮВ 7-10
{10}
50 км 9/9 300 м
[]
+8.8 +6.1 83 +5 +5 тепло 1010.6 1009.3
ЮВ 10-11
{11}
50 км 9/5 600 м
[]
+8.8 +5.9 82 +4 +4 по сезону 1009.2 1007.9
ЮВ 8-10
{12}
12 км слаб. дождь 10/10 300 м
[]
+8.4 +6.8 90 +4 +4 по сезону 1008.7 1007.4
ЮВ 8-10
{10}
9000 м слаб. дождь {морось} 10/0 300 м
[]
+8.4 +7.2 92 +4 +4 по сезону 1008.1 1006.8 +6.6 +8.9
ЮВ 7-8
{10}
18 км слаб. ливневой дождь 10/10 200 м
[]
+8.6 +7.5 93 +4 +4 по сезону 1007.2 1005.9
ЮВ 8-9
{12}
22 км слаб. дождь 10/0 300 м
[]
+8.9 +6.9 87 +4 +5 по сезону 1006.3 1005.1
В 9-10
{10}
12 км ливневой дождь 10/10 300 м
[]
+8.8 +6.8 87 +4 +4 по сезону 1005.3 1004.0
В 8-10
{10}
6000 м слаб. дождь 10/10 300 м
[]
+8.7 +6.5 86 +4 +4 по сезону 1005.0 1003.7
СВ 10-12
{12}
7000 м слаб. дождь 10/0 100 м
[]
+7.1 +6.5 96 +1 +1 по сезону 1005.2 1003.9
СВ 10-13
{13}
11 км слаб. дождь 10/10 200 м
[]
+6.9 +6.1 95 +1 +1 по сезону 1005.4 1004.1
СВ 9-12
{13}
35 км в посл. час дождь 9/3 200 м
[]
+6.6 +5.3 91 +1 +1 по сезону 1006.2 1004.9
СВ 8-11
{13}
35 км 10/1 300 м
[]
+6.4 +4.8 89 +1 +1 по сезону 1007.4 1006.1
СВ 8-11
{11}
40 км {дождь, морось} 9/9 300 м
[]
+6.1 +4.7 91 +1 +1 по сезону 1009.0 1007.7
С 8-10
{12}
45 км 9/9 300 м
[]
+5.8 +4.4 91 0 0 по сезону 1010.9 1009.6
С 8-10
{10}
45 км 5/3 200 м
[]
+5.4 +4.0 91 -0 -0 по сезону 1012.4 1011.1
С 7-9
{11}
45 км {дождь, морось} ясно +4.9 +3.4 90 -1 -1 по сезону 1013.5 1012.2 +4.8 +9.0
С 6-8
{8}
50 км ясно +5.1 +3.6 90 -0 -0 по сезону 1014.9 1013.6
С 5-7
{7}
50 км ясно +4.7 +2.8 87 -0 -0 по сезону 1015.9 1014.6
С 6-7
{7}
50 км ясно +4.8 +2.3 84 -0 -0 по сезону 1016.8 1015.5
С 6-6
{7}
50 км ясно +4.4 +2.0 84 -1 -1 по сезону 1017.8 1016.5
С 5-5
{7}
50 км ясно +4.1 +1.9 86 -1 -1 по сезону 1018.7 1017.4
С 4-5
{6}
50 км ясно +3.9 +1.8 86 -1 -1 по сезону 1019.6 1018.3
С 4-5
{5}
50 км ясно +3.7 +1.6 86 -1 -1 по сезону 1020.5 1019.2
С 4-5
{5}
50 км ясно +3.7 +1.3 84 -1 -1 по сезону 1021.2 1019.9
С 3-3
{5}
50 км ясно +3.5 +1.1 84 -0 -0 по сезону 1021.7 1020.4
С 4-5
{5}
50 км ясно +3.3 +2.1 92 -1 -1 по сезону 1021.7 1020.4
СВ 3-4
{5}
50 км ясно +3.4 +1.7 89 -1 -1 по сезону 1022.2 1020.9
СВ 2-3
{4}
50 км ясно +4.2 +1.9 85 +1 +1 по сезону 1022.8 1021.5 +3.0 +5.2
Местоположение метеостанции Остров Хармая (Финляндия): широта 60.10 долгота 24.98 высота над уровнем моря 3 м.
В архиве по умолчанию представлена погода на Острове Хармая за последнюю неделю. Архивные данные за месяц целиком и за предыдущие месяцы, начиная с января 2011 года, Вы можете получить, выбрав интересующий диапазон дат из раскрывающегося списка и нажав кнопку "Найти!".
*Определитесь, кто Вы:
Внимание! Время в таблицах - всемирное. Для получения местного времени необходимо прибавить поправку, которая равна 1 ч.
Смотрите также архив погоды в соседних городах и на ближайших метеорологических станциях:
Партнеры нашего сайта:      
Пояснения к столбцам:
  • Ветер - указаны скорость ветра в м/с - средняя за 10 мин, порывы в срок и между сроками (в фигурных скобках) и направление, откуда дует ветер: С - северный,
  • СВ - северо-восточный, В - восточный, ЮВ - юго-восточный, Ю - южный, ЮЗ - юго-западный, З - западный, СЗ - северо-западный.
  • Видимость - горизонтальная дальность видимости в метрах или километрах. При видимости от 1 до 10 км при отсутствии осадков обычно наблюдается дымка, при ухудшении видимости до 1 км и менее - туман. В сухую погоду видимость может ухудшаться дымом, пылью или мглою.
  • Явления - указаны атмосферные явления, наблюдавшиеся в срок или в последний час перед сроком; фигурными скобками обозначены явления, наблюдавшиеся между сроками (за 1-3 часа до срока); квадратными скобками обозначены град или гололедные отложения с указанием их диаметра в мм.
  • Облачность - указаны через наклонную черту общая и нижняя облачность в баллах и высота нижней границы облаков в метрах; квадратными скобками обозначены формы облаков: Ci - перистые, Cs - перисто-слоистые, Cc - перисто-кучевые, Ac - высококучевые, As - высокослоистые, Sc - слоисто-кучевые, Ns - слоисто-дождевые, Cu - кучевые, Cb - кучево-дождевые. Подробнее классификацию облаков см. в Атласе облаков (PDF).
  • T - Температура воздуха - температура, измеренная на высоте 2 м над землей.
  • Td - Температура точки росы - температура, при понижении до которой содержащийся в воздухе водяной пар достигнет насыщения.
  • f - Относительная влажность воздуха - влажноcть воздуха, измеренная на высоте 2 м над землей.
  • Te - Эффективная температура - температура, которую ощущает одетый по сезону человек в тени. Характеристика душности погоды. При расчете учитывается влияние влажности воздуха и скорости ветра на теплоощущения человека.
  • Tes - Эффективная температура на солнце - температура, которую ощущает человек, с поправкой на солнечный нагрев. Характеристика знойности погоды. Зависит от высоты солнца над горизонтом, облачности и скорости ветра. Ночью, в пасмурную погоду, а также при ветре 12 м/с и более поправка равна нулю.
  • P - Атмосферное давление - приведенное к уровню моря атмосферное давление.
  • Po - Атмосферное давление - измеренное на уровне метеостанции атмосферное давление.
  • Tmin - Минимальная температура - минимум температуры воздуха на высоте 2 м над землей.
  • Tmax - Максимальная температура - максимум температуры воздуха на высоте 2 м над землей.
  • R - Количество осадков - Количество выпавших осадков за период времени, мм. При наведении курсора мыши на число - период времени, за который выпало указанное количество осадков.
  • R24 - Количество осадков - Количество выпавших осадков за 24 часа, мм.
  • S - Снежный покров - Высота снежного покрова, см. При наведении курсора мыши на число - состояние снежного покрова и степень покрытия местности в баллах.